Find Starlink 32813

NORAD ID: 62869 Int'l Des: 2025-022 Owner: SPXS Country: US Constellation: starlink operational
LEOCIRCULAR

当前视图

正在加载3D地球...

About Starlink 32813

Starlink 32813 (NORAD 62869) is a starlink constellation satellite (v2 mini) launched Feb 2, 2025 by SPXS of US. It operates in LEO, CIRCULAR orbit with a mass of 730.00 kg.

即将过境

Passes for default location (London). Set your location on the main map for personalized predictions.

高度历史

Loading altitude history...

两行轨道根数

1 62869U 25022R 26263.39541838 .00013207 00000-0 40124-3 0 9999
2 62869 53.1588 302.1648 0001050 65.4729 294.6383 15.34405865 91754
Epoch: Sep 20, 2026 • Age: 23 hours

当前状态

高度 463.1 km
远地点 / 近地点 N/A
速度 7.64 km/s
星下点 20.31°N, 19.13°W
发射日期 Feb 2, 2025
运行时间 1.6 years
类型 internet

技术详情

分类 Payload
质量 730.00 kg
干质量 700.00 kg
长度 0.30 m
跨度 29.00 m
形状 ? Box + pan
制造商 SPXS
平台类型 Starlink V2M
阶段状态 In Orbit
所有者/国家 SPXS/US

Most Searched